Temperature
14 14 14 14 14 14 14 14 14 14 14 14 14 14 14 14 14 13 13 13 13 13 13 13 13 13 13 13 14 14 14 14 14 14 14 14 14 14
14 14 14 14 13 13 13 13 13 13 13 13 13 13 13 13 13 13 13 13 13 13 13 13 13 13 13 13 13 13 14 14 14 14 14 14 14 14
14 14 14 14 13 13 13 13 13 13 13 13 13 13 13 13 13 13 13 13 13 13 13 13 13 13 13 13 13 13 13 13 13 14 14 14 14 14
14 14 14 14 14 13 13 13 13 13 13 13 13 13 13 13 13 13 13 13 13 13 12 12 12 12 12 13 13 13 13 13 13 13 13 13 14 14
14 14 14 14 14 13 13 13 13 13 13 13 13 13 13 13 13 13 13 12 12 12 12 12 12 12 12 12 12 12 12 12 12 13 13 13 13 13
14 14 14 14 14 13 13 13 13 13 13 13 13 13 13 13 12 12 12 12 12 12 12 12 12 12 12 12 12 12 12 12 12 12 12 12 12 13
14 14 14 14 14 13 13 13 13 13 13 13 13 12 13 12 12 12 12 12 12 12 12 12 12 12 12 12 12 12 12 12 12 12 12 12 12 12
14 14 14 14 14 14 13 13 13 13 13 13 12 12 13 12 12 12 12 11 12 12 12 12 12 12 12 12 12 12 12 12 12 12 12 12 12 12
14 14 14 14 14 13 13 13 13 13 13 12 12 12 12 12 12 12 12 11 11 12 11 11 12 12 12 12 12 12 11 11 11 11 11 12 12 12
14 14 14 14 14 13 13 13 13 13 13 12 12 12 12 12 12 11 11 11 11 11 11 11 12 12 12 12 12 11 11 11 11 11 11 11 11 11
14 14 14 14 14 13 13 13 13 13 13 12 12 12 12 12 12 11 11 11 11 11 11 11 11 11 11 11 11 11 11 11 11 11 11 11 11 11
14 14 14 14 13 13 13 13 13 13 13 12 12 12 12 12 12 11 11 11 10 11 11 11 11 11 11 11 11 11 11 11 11 11 11 11 11 11
14 14 14 13 13 13 12 12 12 12 12 12 12 12 12 12 12 12 11 11 10 10 11 10 10 10 10 10 11 11 11 11 11 11 11 11 11 11
14 14 13 13 13 12 12 12 12 12 12 12 12 12 12 12 12 11 11 11 10 10 10 10 10 10 10 10 10 11 11 11 11 11 11 11 11 11
13 13 13 13 12 12 12 12 11 11 11 11 11 11 11 11 11 11 11 11 10 10 10 10 10 10 10 10 10 10 10 11 11 11 11 11 11 11
13 13 12 12 12 12 11 11 11 11 11 11 11 11 11 11 10 10 10 10 10 10 11 11 10 10 10 10 10 10 10 10 10 10 10 10 10 10
12 12 12 12 11 11 11 11 11 11 10 10 10 10 10 10 10 10 10 10 10 10 10 10 10 10 10 10 10 10 10 10 10 10 10 10 10 10
12 11 11 11 11 11 10 10 10 10 10 10 10 10 10 9 9 10 9 9 9 9 9 10 10 9 9 10 10 10 10 10 10 10 10 9 10 10
11 11 11 10 10 10 10 10 10 10 9 9 9 9 9 9 9 9 9 9 9 9 9 9 9 9 9 9 9 10 9 9 9 9 9 9 9 10
11 10 10 10 10 9 9 9 9 9 9 9 9 9 9 8 8 8 8 8 8 8 8 8 8 8 8 8 8 9 9 9 9 9 9 9 9 9
10 10 10 9 9 9 9 9 8 8 8 8 8 8 8 8 8 8 8 8 8 8 8 8 8 8 8 8 8 8 9 9 9 9 9 9 9 9
10 9 9 9 9 8 8 8 8 8 8 8 8 7 7 7 7 7 7 7 7 7 7 8 8 8 8 7 7 8 8 9 9 9 9 8 8 8
9 9 8 8 8 8 8 8 7 7 7 7 7 7 7 7 7 7 7 7 7 7 7 7 7 7 7 7 7 8 8 8 8 9 9 9 9 9
Wind_Speed
3 3 2 1 2 2 3 3 4 1 2 3 3 3 2 3 4 5 5 7 9 11 12 13 14 14 14 14 14 14 15 15 16 18 18 19 20 21
3 3 2 1 1 2 2 2 3 4 2 3 3 3 3 4 6 6 8 10 11 13 15 16 16 17 17 17 16 16 15 15 15 16 17 17 18 19
3 3 3 3 2 1 1 2 2 3 3 4 3 3 2 4 6 8 10 11 12 14 16 17 18 19 19 19 19 18 17 17 16 16 16 16 17 17
4 4 4 3 3 2 2 2 2 3 4 4 3 3 4 4 4 5 7 9 10 13 15 16 16 17 18 19 20 20 20 19 18 18 18 17 17 17
6 6 5 4 4 3 3 3 3 2 3 3 4 3 3 3 3 4 4 5 9 11 13 13 14 15 16 17 19 20 21 21 21 21 20 20 20 19
6 6 6 7 7 6 5 5 4 3 3 3 4 4 4 4 2 3 4 4 5 8 10 11 11 13 14 16 17 19 20 22 22 22 22 22 22 22
6 6 7 9 10 8 6 6 6 4 4 4 5 4 4 4 4 3 4 5 5 4 4 5 6 8 12 15 17 18 20 21 22 23 23 23 23 23
7 7 7 8 10 12 12 11 10 8 7 6 5 6 8 6 5 5 4 4 5 4 3 5 4 6 8 13 17 20 20 21 21 22 23 23 24 24
7 7 6 6 8 6 9 11 11 14 13 9 9 10 8 8 6 6 7 7 8 6 3 7 6 7 9 15 19 21 22 22 22 22 22 23 23 23
8 8 7 7 7 7 7 7 8 9 11 10 10 11 11 10 8 8 8 7 7 6 5 6 7 7 9 11 19 21 22 22 22 22 22 22 23 23
8 8 8 8 11 11 7 8 9 9 12 15 16 17 18 18 13 5 6 6 8 7 5 5 6 7 6 8 14 18 19 20 20 20 20 21 22 21
6 7 10 10 11 9 6 7 9 10 8 8 9 12 13 15 16 11 9 9 7 6 6 5 6 5 5 6 6 9 11 15 18 19 19 20 19 12
6 6 6 8 10 9 8 8 12 11 8 8 8 8 8 8 9 9 10 10 10 9 7 5 6 5 6 6 5 6 6 7 9 11 16 18 19 13
7 6 5 8 9 10 8 11 15 11 6 6 7 8 9 9 9 9 10 12 13 13 12 8 6 7 7 7 7 5 6 7 7 8 8 14 15 18
6 7 7 9 9 8 11 13 10 6 5 6 8 9 9 9 8 7 8 9 10 14 17 13 10 9 8 9 9 7 6 6 7 8 8 7 8 6
6 7 8 10 9 9 9 8 6 6 6 7 8 8 7 6 7 7 7 7 7 9 10 13 11 11 10 11 10 10 8 6 5 7 8 8 7 7
3 2 3 3 4 5 5 6 5 4 5 5 6 7 7 7 8 6 6 6 7 8 9 7 7 9 11 10 9 11 10 10 10 9 7 9 10 9
3 2 4 4 5 6 6 6 5 5 6 6 6 6 7 7 7 6 6 6 8 9 9 8 6 5 4 7 12 12 10 10 9 8 7 8 11 9
3 4 5 5 6 6 5 5 6 6 5 5 6 6 6 7 7 7 7 7 8 9 9 7 6 6 8 11 8 12 11 10 8 8 8 8 10 10
4 5 5 6 5 5 5 5 6 6 5 5 6 6 6 6 7 7 7 8 8 8 8 7 7 7 9 10 9 8 12 11 9 10 9 8 9 11
4 5 5 5 5 5 6 6 6 6 6 6 6 7 6 6 7 7 7 9 9 8 9 9 9 11 8 5 7 8 7 12 13 10 7 6 7 6
5 5 5 5 5 6 6 5 5 5 6 6 6 6 6 6 7 8 8 8 8 8 10 10 9 6 5 7 11 11 11 9 10 15 17 13 7 6
5 4 5 5 5 5 5 6 6 6 6 6 6 6 6 6 7 7 8 8 8 9 10 9 7 6 6 8 9 10 12 11 7 7 8 13 18 20
Wind_Direction
129 118 113 98 89 108 129 140 139 133 302 301 314 312 293 244 243 241 255 263 265 268 270 272 272 273 273 274 275 274 272 270 266 259 254 252 249 248
150 135 133 135 99 105 116 126 140 156 215 270 270 279 279 276 262 257 263 271 273 273 274 274 273 273 272 272 273 272 271 271 269 263 258 256 253 252
177 169 187 182 163 148 115 120 142 151 202 274 273 285 285 285 289 282 277 275 278 281 280 277 275 274 272 271 271 270 269 268 267 265 261 258 256 256
199 189 205 195 196 205 187 191 196 185 187 249 284 290 278 276 276 282 284 283 281 284 285 285 282 279 276 272 270 268 266 266 265 263 261 259 258 257
200 197 206 193 211 219 213 215 225 217 191 214 262 270 278 284 295 294 290 291 292 291 292 293 293 289 285 280 274 269 267 265 264 262 260 259 258 257
206 204 206 203 211 216 219 220 220 228 227 229 257 271 274 283 283 285 297 292 290 293 291 292 296 298 295 291 283 276 272 268 265 263 260 259 258 256
222 219 219 218 218 216 218 216 210 216 224 233 253 267 272 277 266 257 268 282 282 268 279 286 292 295 294 293 287 281 275 271 267 265 262 259 257 256
226 233 240 237 236 234 235 226 212 213 222 228 240 246 257 254 252 251 255 275 285 267 252 275 272 277 279 281 279 278 276 273 271 267 264 260 257 255
219 226 241 240 236 241 251 251 242 235 225 223 235 244 250 248 245 256 250 246 254 251 245 274 271 272 274 277 276 276 275 274 272 269 265 261 257 255
221 221 230 245 246 238 244 255 257 254 244 235 236 246 247 247 237 243 252 260 263 259 221 258 269 265 272 272 274 275 276 275 274 271 267 263 259 256
237 235 231 242 253 250 242 252 265 269 264 251 244 249 253 255 249 246 254 256 271 272 221 225 260 266 268 267 269 269 271 274 275 275 272 267 262 258
249 248 243 246 255 255 237 242 259 267 271 278 268 265 261 262 257 239 237 245 255 266 242 216 249 254 276 265 259 266 270 272 273 274 273 270 265 254
244 249 247 251 256 257 245 237 249 259 267 265 269 271 268 261 258 245 233 232 241 250 243 211 241 240 240 266 268 254 250 258 268 270 271 269 264 243
239 247 251 262 268 269 261 255 261 266 259 261 267 270 269 266 263 254 245 238 238 245 251 227 232 242 249 262 268 265 252 248 248 256 261 267 265 253
241 252 264 272 278 276 269 271 275 261 251 256 263 266 262 262 262 263 263 256 255 255 257 245 238 246 240 251 259 259 266 262 244 249 255 252 252 244
248 264 271 273 271 267 276 279 264 250 245 253 262 267 270 269 266 263 266 268 270 274 263 252 241 238 247 248 250 258 255 252 253 245 247 255 250 240
226 258 273 283 286 283 280 276 271 271 266 262 266 276 278 275 273 266 257 259 261 272 279 276 253 241 238 241 249 253 256 256 255 253 248 258 257 245
179 249 264 267 269 274 278 281 277 273 268 267 271 271 273 274 276 273 262 258 264 269 271 272 272 278 275 257 232 247 254 255 255 245 234 249 263 256
196 247 255 259 262 265 266 267 271 273 271 271 271 272 273 273 274 276 273 268 268 270 270 266 255 247 266 278 260 225 238 254 255 252 242 238 252 258
225 241 250 255 255 258 263 266 271 278 277 274 274 275 277 279 278 277 274 271 272 274 275 268 254 245 249 265 274 265 233 237 246 253 255 249 251 259
245 243 244 247 250 254 257 258 262 267 271 274 277 278 280 279 278 276 275 275 274 276 276 274 265 257 257 261 271 271 260 236 232 240 244 248 256 259
246 248 250 254 256 258 259 260 264 268 274 275 276 279 279 275 276 279 279 278 277 276 277 278 276 273 254 256 266 273 277 273 253 245 239 230 229 236
249 253 259 264 264 263 265 267 269 273 274 275 277 278 280 280 279 279 279 279 280 281 283 284 283 272 262 259 265 270 272 275 275 269 263 247 239 244
Height
1556 1556 1557 1558 1558 1559 1559 1559 1560 1560 1560 1559 1559 1559 1559 1558 1558 1557 1556 1555 1553 1552 1551 1550 1550 1549 1549 1548 1548 1548 1548 1548 1548 1549 1550 1551 1552 1553
1555 1555 1556 1557 1557 1557 1558 1558 1558 1558 1558 1557 1557 1557 1557 1556 1555 1554 1553 1552 1550 1549 1548 1547 1546 1545 1545 1544 1544 1543 1543 1543 1543 1543 1544 1545 1546 1547
1553 1554 1555 1555 1556 1556 1556 1556 1556 1556 1556 1556 1555 1555 1554 1553 1552 1551 1550 1549 1547 1546 1545 1543 1542 1541 1541 1540 1539 1539 1538 1538 1537 1537 1538 1539 1539 1541
1552 1552 1553 1553 1554 1554 1554 1554 1554 1554 1554 1553 1552 1552 1551 1550 1549 1548 1547 1545 1544 1543 1541 1540 1539 1537 1536 1536 1535 1534 1533 1533 1532 1532 1532 1532 1533 1534
1550 1551 1551 1551 1551 1552 1552 1552 1551 1551 1551 1550 1549 1548 1547 1547 1545 1544 1543 1542 1540 1539 1537 1536 1534 1533 1532 1531 1530 1529 1528 1528 1527 1527 1526 1526 1526 1527
1548 1548 1549 1549 1549 1549 1549 1548 1548 1548 1547 1546 1545 1544 1544 1543 1541 1540 1538 1537 1536 1534 1533 1531 1530 1528 1527 1526 1525 1524 1523 1522 1522 1521 1521 1520 1520 1520
1545 1546 1546 1546 1546 1546 1545 1545 1545 1544 1544 1543 1541 1540 1539 1538 1537 1536 1534 1532 1530 1529 1527 1526 1524 1523 1521 1520 1519 1518 1517 1516 1516 1515 1514 1514 1514 1513
1542 1542 1542 1542 1542 1542 1542 1541 1541 1540 1539 1538 1537 1536 1535 1534 1533 1531 1529 1527 1524 1524 1522 1519 1519 1516 1515 1514 1512 1511 1511 1510 1509 1509 1508 1507 1507 1507
1538 1538 1538 1538 1538 1538 1537 1537 1536 1536 1535 1534 1532 1531 1530 1529 1528 1526 1524 1521 1519 1518 1516 1512 1512 1509 1508 1507 1506 1505 1504 1503 1502 1502 1501 1501 1500 1500
1533 1534 1533 1533 1533 1533 1532 1531 1531 1530 1529 1528 1527 1525 1524 1523 1522 1520 1518 1515 1512 1512 1511 1506 1504 1503 1501 1500 1499 1498 1497 1496 1495 1494 1494 1493 1493 1492
1529 1529 1528 1528 1528 1527 1526 1525 1524 1523 1523 1522 1520 1519 1518 1517 1515 1513 1511 1508 1504 1503 1504 1500 1498 1496 1494 1492 1492 1491 1490 1489 1488 1487 1486 1486 1485 1485
1523 1523 1523 1523 1522 1521 1521 1519 1518 1517 1516 1514 1513 1512 1510 1509 1508 1506 1503 1501 1497 1495 1495 1494 1491 1489 1485 1484 1484 1483 1482 1481 1480 1479 1478 1478 1478 1477
1518 1517 1517 1517 1516 1516 1515 1513 1512 1511 1509 1507 1505 1504 1502 1501 1499 1498 1496 1493 1490 1487 1488 1487 1484 1482 1480 1476 1475 1475 1474 1473 1472 1471 1470 1469 1469 1469
1512 1512 1511 1511 1510 1509 1508 1506 1505 1504 1502 1500 1498 1496 1494 1492 1491 1489 1487 1485 1483 1481 1480 1479 1476 1474 1472 1469 1466 1466 1465 1465 1463 1462 1461 1460 1460 1460
1506 1506 1505 1505 1503 1502 1501 1499 1498 1496 1494 1492 1490 1488 1487 1485 1483 1481 1479 1477 1474 1473 1471 1470 1468 1466 1464 1461 1458 1457 1456 1455 1455 1453 1452 1451 1451 1451
1500 1500 1499 1498 1497 1496 1494 1493 1491 1490 1488 1486 1483 1481 1479 1477 1475 1473 1470 1468 1465 1463 1462 1461 1459 1458 1455 1452 1451 1448 1447 1446 1445 1445 1444 1442 1442 1441
1495 1494 1493 1492 1491 1490 1488 1487 1485 1483 1481 1479 1476 1474 1471 1469 1467 1465 1462 1459 1457 1453 1452 1451 1450 1448 1446 1444 1441 1439 1438 1437 1436 1436 1435 1432 1432 1432
1490 1488 1488 1487 1485 1484 1482 1480 1478 1476 1474 1472 1469 1467 1464 1462 1459 1457 1455 1452 1449 1446 1444 1442 1440 1438 1436 1434 1434 1431 1429 1428 1427 1427 1426 1424 1422 1422
1484 1483 1482 1481 1480 1478 1476 1474 1472 1470 1468 1465 1463 1460 1458 1455 1452 1449 1447 1444 1441 1438 1436 1434 1433 1430 1427 1423 1422 1423 1421 1419 1418 1417 1416 1415 1413 1412
1479 1478 1477 1475 1474 1472 1470 1468 1466 1463 1461 1458 1456 1454 1451 1448 1445 1442 1440 1437 1434 1431 1428 1426 1424 1423 1420 1417 1413 1412 1413 1411 1409 1408 1407 1406 1404 1404
1473 1472 1471 1469 1468 1466 1464 1461 1459 1456 1454 1451 1449 1446 1444 1441 1438 1435 1432 1430 1427 1423 1420 1418 1416 1415 1412 1409 1405 1402 1402 1403 1401 1400 1398 1397 1395 1394
1467 1466 1465 1463 1461 1459 1457 1454 1452 1449 1447 1444 1442 1439 1436 1434 1431 1428 1425 1422 1419 1416 1412 1410 1408 1407 1404 1401 1397 1395 1393 1393 1393 1391 1390 1389 1387 1385
1461 1460 1458 1457 1455 1452 1450 1447 1445 1442 1440 1437 1434 1432 1429 1427 1424 1421 1418 1414 1411 1408 1405 1402 1400 1398 1396 1393 1391 1388 1386 1385 1383 1382 1381 1381 1380 1379